Regional Weather Roundup
Issued by NWS

Home | Current Version | Previous Version | Text Only | Print | Product List | Glossary Off
Versions: 1 2 3 4 5 6 7 8 9 10 11 12 13 14 15 16 17 18 19 20 21 22 23 24 25 26 27 28 29 30 31 32 33 34 35 36 37 38 39 40 41 42 43 44 45 46 47 48 49 50

000
ASUS43 KMPX 200010
RWRMN
WEATHER ROUNDUP FOR MINNESOTA
NATIONAL WEATHER SERVICE TWIN CITIES/CHANHASSEN MN
600 PM CST SUN NOV 19 2017


NOTE: "FAIR" INDICATES FEW OR NO CLOUDS BELOW 12,000 FEET WITH NO
SIGNIFICANT WEATHER AND/OR OBSTRUCTIONS TO VISIBILITY. N/A MEANS
CURRENT SKY AND/OR WEATHER CONDITIONS ARE NOT AVAILABLE.

MNZ060>063-068>070-200100-
   Twin Cities Metro

CITY           SKY/WX    TMP DP  RH WIND       PRES   REMARKS
TWIN CITIES    PTCLDY    36  24  62 VRB3      29.85F
6HR MIN TEMP:  31; 6HR MAX TEMP:  41;

ST PAUL        CLEAR     33  25  72 CALM      29.87F
CRYSTAL        CLEAR     31  21  66 CALM      29.84F
BLAINE         PTCLDY    30  25  80 SE3       29.84F
LAKEVILLE      CLEAR     36  27  69 S3        29.86F
EDEN PRAIRIE   CLEAR     37  24  59 S8        29.84F
6HR MIN TEMP:  33; 6HR MAX TEMP:  43;

SOUTH ST PAUL  CLEAR     31  24  72 CALM      29.86F
LAKE ELMO      FAIR      30  25  80 S5        29.87F WCI  25
$$
MNZ001>005-007-008-013>017-022>024-027-028-200100-
   Northwest Minnesota

CITY           SKY/WX    TMP DP  RH WIND       PRES   REMARKS
BEMIDJI        CLEAR     25  18  77 CALM      29.76F
HALLOCK        CLOUDY    19  18  93 CALM      29.78S
ROSEAU         CLEAR     21  16  79 E5        29.78S WCI  15
WARROAD        CLEAR     19  16  86 E3        29.79S
THIEF RVR FALL CLEAR     23  18  81 CALM      29.77F
CROOKSTON      CLOUDY    28  25  86 CALM      29.78F
FOSSTON        CLEAR     25  19  80 CALM      29.76F
DETROIT LAKES  CLOUDY    34  27  75 S3        29.78F
MOORHEAD       CLOUDY    30  21  69 S5        29.78F WCI  25
PARK RAPIDS    CLEAR     29  22  75 S5        29.76F WCI  24
MAHNOMEN       FAIR      29  24  80 S6        29.76S WCI  23
$$
MNZ006-009>011-018-025>026-200100-
   North Central Minnesota

CITY           SKY/WX    TMP DP  RH WIND       PRES   REMARKS
BAUDETTE       CLOUDY    18  11  74 SE5       29.78F WCI  11
FLAG ISLAND    CLEAR     19  16  86 S5        29.78F WCI  13
INTL FALLS     CLOUDY    15  10  80 CALM      29.80S
6HR MIN TEMP:  15; 6HR MAX TEMP:  22;

WASKISH        CLOUDY    19  16  86 SE3       29.78F
BIG FORK       CLOUDY    18  12  79 CALM      29.79F
LONGVILLE      CLEAR     23  18  80 CALM      29.78F
GRAND RAPIDS   CLEAR     19  15  84 CALM      29.81F
CRANE LAKE     CLOUDY    14  12  92 CALM      29.84S
ORR            CLOUDY    16  12  86 CALM      29.78F
COOK           CLOUDY    16  12  86 CALM      29.81S
WALKER         FAIR      27  20  75 CALM      29.77F
$$
MNZ012-019>021-037-200100-
   Northeast Minnesota

CITY           SKY/WX    TMP DP  RH WIND       PRES   REMARKS
DULUTH         PTCLDY    22  15  75 CALM      29.82S
6HR MIN TEMP:  19; 6HR MAX TEMP:  24; 6HR PCP: TRACE;

ELY            MOCLDY    18  12  79 SW3       29.81R
HIBBING        CLOUDY    14  12  92 CALM      29.80F
EVELETH        CLOUDY    16  12  86 CALM      29.82F
DULUTH HARBOR  CLEAR     27  18  69 CALM      29.87S
TWO HARBORS    CLOUDY    23  16  74 CALM      29.83S
SILVER BAY     PTCLDY    19  16  86 CALM      29.83S
GRAND MARAIS     N/A     22  11  62 W5        29.85S WCI  16
G MARAIS ARPRT MOCLDY    12   7  79 CALM      29.77S
$$
MNZ029>031-032-039>041-046>048-054>057-064-200100-
   West Central Minnesota

CITY           SKY/WX    TMP DP  RH WIND       PRES   REMARKS
FERGUS FALLS   CLOUDY    36  25  64 CALM      29.81S
WHEATON        CLOUDY    39  21  48 SW3       29.82S
MORRIS         CLOUDY    37  25  60 W6        29.80F
ALEXANDRIA     CLOUDY    36  26  67 SW8       29.80F
ELBOW LAKE     FAIR      32  24  71 SW6       29.80F WCI  27
WADENA         CLOUDY    28  21  74 CALM      29.78F
GLENWOOD       CLOUDY    32  25  74 SW7       29.81S WCI  26
APPLETON       CLOUDY    43  23  45 SW8       29.82S
BENSON         CLOUDY    37  23  56 W7        29.83F
ORTONVILLE     CLOUDY    39  25  56 MISG      29.81S
MADISON        CLOUDY    39  27  60 SW10      29.83F
WILLMAR        FAIR      37  28  70 SW9       29.84F
$$
MNZ033>034-036-042>043-049>051-058-059-200100-
   Central Minnesota

CITY           SKY/WX    TMP DP  RH WIND       PRES   REMARKS
ST CLOUD       CLEAR     29  24  82 SE6       29.82F WCI  23
6HR MIN TEMP:  29; 6HR MAX TEMP:  40;

SAUK CENTRE    FAIR      33  27  79 S6        29.80F WCI  27
PAYNESVILLE    CLOUDY    40  29  66 SW8       29.82F
AITKIN         CLEAR     21  18  86 CALM      29.80S
PINE RIVER     CLEAR     25  19  80 CALM      29.82F
BRAINERD       CLEAR     30  21  69 CALM      29.80F
STAPLES        CLOUDY    28  21  74 CALM      29.79S
LONG PRAIRIE   FAIR      32  27  80 S3        29.80F
LITTLE FALLS   CLEAR     32  21  64 CALM      29.81F
LITCHFIELD     CLEAR     37  28  70 CALM      29.84F
BUFFALO        CLEAR     32  24  73 CALM      29.84F
MAPLE LAKE     CLEAR     30  27  86 CALM      29.84F
HUTCHINSON     CLOUDY    39  28  63 S5        29.86F
$$
MNZ037-044-045-052-053-200100-
   East Central Minnesota

CITY           SKY/WX    TMP DP  RH WIND       PRES   REMARKS
PRINCETON      CLEAR     28  25  86 CALM      29.84F
MORA           CLEAR     27  21  80 CALM      29.86S
CAMBRIDGE      CLEAR     28  19  69 CALM      29.85S
RUSH CITY      CLEAR     29  19  67 CALM      29.86S
MOOSE LAKE     CLEAR     27  18  69 CALM      29.82F
HINCKLEY       FAIR      30  21  69 SE3       29.85S
CLOQUET        CLEAR     21  16  79 CALM      29.82S
MCGREGOR       CLEAR     28  21  74 S3        29.81F
$$
MNZ071>073-080-081-089-090-097-098-200100-
   Southwest Minnesota

CITY           SKY/WX    TMP DP  RH WIND       PRES   REMARKS
MONTEVIDEO     CLOUDY    39  25  56 SW7       29.84S
GRANITE FALLS  CLOUDY    40  26  56 S9        29.86F
CANBY          CLOUDY    45  25  46 SW13      29.85S
MARSHALL       CLOUDY    42  25  50 SW12      29.85F
REDWOOD FALLS  CLOUDY    42  22  44 SW13      29.85F
OLIVIA         CLOUDY    36  25  64 SW5       29.84F
PIPESTONE      CLOUDY    36  21  55 SW5       29.86F
WINDOM         CLOUDY    39  21  48 S8        29.89S
WORTHINGTON    CLOUDY    39  25  57 S7        29.89F
JACKSON        CLOUDY    37  27  65 CALM      29.90F
SLAYTON        CLOUDY    37  24  59 S12       29.88F
$$
MNZ065>067-074>077-082>085-091>093-200100-
   South Central Minnesota

CITY           SKY/WX    TMP DP  RH WIND       PRES   REMARKS
MANKATO        CLEAR     40  24  53 SW7       29.88F
NEW ULM        CLOUDY    39  23  52 CALM      29.87S
ST JAMES       CLOUDY    37  25  60 S9        29.90F
FAIRMONT       CLOUDY    38  26  62 SW9       29.91F
GLENCOE        CLEAR     39  27  62 SW5       29.84F
FARIBAULT      CLEAR     36  27  69 S8        29.88F
OWATONNA       CLEAR     37  28  70 S12       29.90S
WASECA         CLEAR     34  28  80 S7        29.91S WCI  28
ALBERT LEA     CLEAR     37  27  65 SW6       29.91F
$$
MNZ078>079-086>088-094>096-200100-
   Southeast Minnesota

CITY           SKY/WX    TMP DP  RH WIND       PRES   REMARKS
ROCHESTER      CLEAR     34  27  75 SW15      29.91F WCI  24
6HR MIN TEMP:  31; 6HR MAX TEMP:  38;

RED WING       CLEAR     34  21  60 CALM      29.88F
STANTON        CLEAR     36  28  72 S7        29.86F
DODGE CENTER   PTCLDY    36  27  69 S14       29.90F
WINONA         CLEAR     34  27  75 SE3       29.94F
AUSTIN         CLEAR     34  27  75 S9        29.92F WCI  26
PRESTON        CLEAR     33  25  71 SW13      29.92F WCI  24
$$
ABBREVIATIONS USED IN REMARKS
   TC - TEMPERATURES IN CELSIUS
  WCI - WIND CHILL INDEX
   HX - HEAT INDEX
  VSB - VISIBILITY
$$



USA.gov is the U.S. government's official web portal to all federal, state and local government web resources and services.